SITE:BDASc,YEAR: 2005,,,,,,
2005date,time,pzhd (cm),gw temp (C),DWT (cm),WT elev (m),,
01/01/05,0:00,155.8,n/a-EEI,244.5,1370.985,,1/1 00:00--4/20 12:30 (EEI PT):
01/01/05,0:30,155.7,,244.6,1370.984,,Depth to water table:
01/01/05,1:00,155.7,,244.5,1370.984,,DWT = SCL - CH - h (all values in cm)
01/01/05,1:30,155.9,,244.3,1370.986,,where
01/01/05,2:00,155.7,,244.5,1370.984,,SCL = sensor cable length =  550.7 cm
01/01/05,2:30,156.0,,244.2,1370.987,,CH = casing height of well = 150.5 cm
01/01/05,3:00,155.8,,244.4,1370.985,,h = height of water above sensor (from pzhd column)
01/01/05,3:30,156.0,,244.2,1370.987,,
01/01/05,4:00,156.0,,244.2,1370.987,,WT elevation:
01/01/05,4:30,155.8,,244.4,1370.985,,Sensor elev = 1369.427 m asl
01/01/05,5:00,155.9,,244.3,1370.986,,WT elev = sensor elev + h (from pzhd column)
01/01/05,5:30,155.8,,244.4,1370.985,,
01/01/05,6:00,155.9,,244.3,1370.986,,
01/01/05,6:30,155.9,,244.3,1370.986,,Dates with missing data (# 0.5 hr data points):
01/01/05,7:00,155.7,,244.5,1370.984,,4/20 (3).
01/01/05,7:30,155.7,,244.5,1370.984,,
01/01/05,8:00,155.8,,244.4,1370.985,,
01/01/05,8:30,155.9,,244.3,1370.986,,Dates w/missing T data (begin 4/20):
01/01/05,9:00,155.8,,244.4,1370.985,,"4/20, 8/17."
01/01/05,9:30,155.7,,244.5,1370.984,,
01/01/05,10:00,155.7,,244.5,1370.984,,
01/01/05,10:30,155.8,,244.4,1370.985,,
01/01/05,11:00,155.8,,244.4,1370.985,,
01/01/05,11:30,155.8,,244.4,1370.985,,
01/01/05,12:00,155.9,,244.3,1370.986,,
01/01/05,12:30,155.9,,244.3,1370.986,,
01/01/05,13:00,156.1,,244.1,1370.988,,
01/01/05,13:30,156.6,,243.6,1370.993,,
01/01/05,14:00,156.4,,243.8,1370.991,,
01/01/05,14:30,155.9,,244.3,1370.986,,
01/01/05,15:00,156.1,,244.1,1370.988,,
01/01/05,15:30,156.6,,243.6,1370.993,,
01/01/05,16:00,156.3,,243.9,1370.990,,
01/01/05,16:30,156.2,,244.0,1370.989,,
01/01/05,17:00,156.1,,244.1,1370.988,,
01/01/05,17:30,156.1,,244.1,1370.988,,
01/01/05,18:00,156.2,,244.0,1370.989,,
01/01/05,18:30,156.6,,243.6,1370.993,,
01/01/05,19:00,156.2,,244.0,1370.989,,
01/01/05,19:30,156.1,,244.1,1370.988,,
01/01/05,20:00,156.0,,244.2,1370.987,,
01/01/05,20:30,156.3,,244.0,1370.990,,
01/01/05,21:00,156.1,,244.2,1370.988,,
01/01/05,21:30,156.3,,244.0,1370.990,,
01/01/05,22:00,156.1,,244.2,1370.988,,
01/01/05,22:30,156.1,,244.1,1370.988,,
01/01/05,23:00,156.0,,244.2,1370.987,,
01/01/05,23:30,156.4,,243.8,1370.991,,
01/02/05,0:00,156.5,,243.7,1370.992,,
01/02/05,0:30,156.2,,244.0,1370.989,,
01/02/05,1:00,156.4,,243.8,1370.991,,
01/02/05,1:30,156.2,,244.0,1370.989,,
01/02/05,2:00,156.3,,243.9,1370.990,,
01/02/05,2:30,156.3,,243.9,1370.990,,
01/02/05,3:00,155.7,,244.5,1370.984,,
01/02/05,3:30,155.8,,244.4,1370.985,,
01/02/05,4:00,155.8,,244.4,1370.985,,
01/02/05,4:30,155.9,,244.3,1370.986,,
01/02/05,5:00,156.1,,244.1,1370.988,,
01/02/05,5:30,156.0,,244.2,1370.987,,
01/02/05,6:00,155.9,,244.3,1370.986,,
01/02/05,6:30,156.0,,244.2,1370.987,,
01/02/05,7:00,156.0,,244.2,1370.987,,
01/02/05,7:30,156.1,,244.1,1370.988,,
01/02/05,8:00,156.1,,244.1,1370.988,,
01/02/05,8:30,156.3,,243.9,1370.990,,
01/02/05,9:00,156.5,,243.7,1370.992,,
01/02/05,9:30,156.7,,243.5,1370.994,,
01/02/05,10:00,156.5,,243.7,1370.992,,
01/02/05,10:30,156.5,,243.7,1370.992,,
01/02/05,11:00,156.5,,243.7,1370.992,,
01/02/05,11:30,156.6,,243.6,1370.993,,
01/02/05,12:00,156.5,,243.7,1370.992,,
01/02/05,12:30,156.5,,243.7,1370.992,,
01/02/05,13:00,156.6,,243.6,1370.993,,
01/02/05,13:30,156.5,,243.7,1370.992,,
01/02/05,14:00,156.7,,243.5,1370.994,,
01/02/05,14:30,156.3,,243.9,1370.990,,
01/02/05,15:00,156.3,,243.9,1370.990,,
01/02/05,15:30,156.5,,243.7,1370.992,,
01/02/05,16:00,156.5,,243.7,1370.992,,
01/02/05,16:30,156.5,,243.7,1370.992,,
01/02/05,17:00,156.5,,243.7,1370.992,,
01/02/05,17:30,156.6,,243.6,1370.993,,
01/02/05,18:00,156.6,,243.7,1370.993,,
01/02/05,18:30,156.6,,243.7,1370.993,,
01/02/05,19:00,156.8,,243.5,1370.995,,
01/02/05,19:30,156.8,,243.5,1370.995,,
01/02/05,20:00,156.6,,243.7,1370.993,,
01/02/05,20:30,156.8,,243.4,1370.995,,
01/02/05,21:00,157.1,,243.1,1370.998,,
01/02/05,21:30,156.8,,243.4,1370.995,,
01/02/05,22:00,156.9,,243.3,1370.996,,
01/02/05,22:30,156.8,,243.4,1370.995,,
01/02/05,23:00,156.8,,243.4,1370.995,,
01/02/05,23:30,156.7,,243.5,1370.994,,
01/03/05,0:00,156.7,,243.5,1370.994,,
01/03/05,0:30,156.9,,243.3,1370.996,,
01/03/05,1:00,156.8,,243.4,1370.995,,
01/03/05,1:30,156.2,,244.0,1370.989,,
01/03/05,2:00,156.4,,243.8,1370.991,,
01/03/05,2:30,156.6,,243.6,1370.993,,
01/03/05,3:00,156.5,,243.7,1370.992,,
01/03/05,3:30,156.6,,243.6,1370.993,,
01/03/05,4:00,156.7,,243.5,1370.994,,
01/03/05,4:30,156.7,,243.5,1370.994,,
01/03/05,5:00,156.6,,243.6,1370.993,,
01/03/05,5:30,156.8,,243.4,1370.995,,
01/03/05,6:00,156.5,,243.7,1370.992,,
01/03/05,6:30,156.6,,243.6,1370.993,,
01/03/05,7:00,156.8,,243.4,1370.995,,
01/03/05,7:30,156.8,,243.4,1370.995,,
01/03/05,8:00,156.9,,243.3,1370.996,,
01/03/05,8:30,157.0,,243.2,1370.997,,
01/03/05,9:00,157.0,,243.2,1370.997,,
01/03/05,9:30,157.0,,243.2,1370.997,,
01/03/05,10:00,156.8,,243.4,1370.995,,
01/03/05,10:30,157.0,,243.2,1370.997,,
01/03/05,11:00,157.1,,243.1,1370.998,,
01/03/05,11:30,157.1,,243.1,1370.998,,
01/03/05,12:00,157.0,,243.2,1370.997,,
01/03/05,12:30,157.2,,243.0,1370.999,,
01/03/05,13:00,157.1,,243.1,1370.998,,
01/03/05,13:30,157.3,,242.9,1371.000,,
01/03/05,14:00,157.3,,242.9,1371.000,,
01/03/05,14:30,157.4,,242.8,1371.001,,
01/03/05,15:00,157.3,,242.9,1371.000,,
01/03/05,15:30,157.4,,242.8,1371.001,,
01/03/05,16:00,157.6,,242.7,1371.003,,
01/03/05,16:30,157.7,,242.6,1371.004,,
01/03/05,17:00,157.5,,242.8,1371.002,,
01/03/05,17:30,157.6,,242.7,1371.003,,
01/03/05,18:00,157.7,,242.5,1371.004,,
01/03/05,18:30,157.6,,242.6,1371.003,,
01/03/05,19:00,157.8,,242.4,1371.005,,
01/03/05,19:30,157.7,,242.5,1371.004,,
01/03/05,20:00,157.7,,242.5,1371.004,,
01/03/05,20:30,157.6,,242.6,1371.003,,
01/03/05,21:00,157.8,,242.4,1371.005,,
01/03/05,21:30,157.7,,242.5,1371.004,,
01/03/05,22:00,157.8,,242.4,1371.005,,
01/03/05,22:30,157.9,,242.3,1371.006,,
01/03/05,23:00,157.8,,242.4,1371.005,,
01/03/05,23:30,157.9,,242.3,1371.006,,
01/04/05,0:00,157.7,,242.5,1371.004,,
01/04/05,0:30,158.0,,242.2,1371.007,,
01/04/05,1:00,158.1,,242.1,1371.008,,
01/04/05,1:30,158.1,,242.1,1371.008,,
01/04/05,2:00,158.2,,242.0,1371.009,,
01/04/05,2:30,158.0,,242.2,1371.007,,
01/04/05,3:00,158.1,,242.1,1371.008,,
01/04/05,3:30,158.3,,241.9,1371.010,,
01/04/05,4:00,158.2,,242.0,1371.009,,
01/04/05,4:30,158.3,,241.9,1371.010,,
01/04/05,5:00,158.3,,241.9,1371.010,,
01/04/05,5:30,158.3,,241.9,1371.010,,
01/04/05,6:00,158.5,,241.7,1371.012,,
01/04/05,6:30,158.4,,241.8,1371.011,,
01/04/05,7:00,158.5,,241.7,1371.012,,
01/04/05,7:30,158.3,,241.9,1371.010,,
01/04/05,8:00,158.4,,241.8,1371.011,,
01/04/05,8:30,158.6,,241.6,1371.013,,
01/04/05,9:00,158.5,,241.7,1371.012,,
01/04/05,9:30,158.5,,241.7,1371.012,,
01/04/05,10:00,158.6,,241.6,1371.013,,
01/04/05,10:30,158.4,,241.8,1371.011,,
01/04/05,11:00,158.3,,241.9,1371.010,,
01/04/05,11:30,158.5,,241.7,1371.012,,
01/04/05,12:00,158.7,,241.5,1371.014,,
01/04/05,12:30,158.6,,241.6,1371.013,,
01/04/05,13:00,158.6,,241.6,1371.013,,
01/04/05,13:30,158.8,,241.5,1371.015,,
01/04/05,14:00,158.8,,241.5,1371.015,,
01/04/05,14:30,158.8,,241.5,1371.015,,
01/04/05,15:00,158.9,,241.4,1371.016,,
01/04/05,15:30,158.9,,241.3,1371.016,,
01/04/05,16:00,159.0,,241.2,1371.017,,
01/04/05,16:30,158.8,,241.4,1371.015,,
01/04/05,17:00,159.0,,241.2,1371.017,,
01/04/05,17:30,159.0,,241.2,1371.017,,
01/04/05,18:00,159.0,,241.2,1371.017,,
01/04/05,18:30,159.0,,241.2,1371.017,,
01/04/05,19:00,159.1,,241.1,1371.018,,
01/04/05,19:30,159.1,,241.1,1371.018,,
01/04/05,20:00,159.0,,241.2,1371.017,,
01/04/05,20:30,158.8,,241.4,1371.015,,
01/04/05,21:00,159.0,,241.2,1371.017,,
01/04/05,21:30,159.2,,241.0,1371.019,,
01/04/05,22:00,159.0,,241.2,1371.017,,
01/04/05,22:30,159.0,,241.2,1371.017,,
01/04/05,23:00,158.8,,241.4,1371.015,,
01/04/05,23:30,158.9,,241.3,1371.016,,
01/05/05,0:00,159.0,,241.2,1371.017,,
01/05/05,0:30,158.8,,241.4,1371.015,,
01/05/05,1:00,158.8,,241.4,1371.015,,
01/05/05,1:30,158.8,,241.4,1371.015,,
01/05/05,2:00,158.8,,241.4,1371.015,,
01/05/05,2:30,158.7,,241.5,1371.014,,
01/05/05,3:00,158.7,,241.5,1371.014,,
01/05/05,3:30,158.8,,241.4,1371.015,,
01/05/05,4:00,158.7,,241.5,1371.014,,
01/05/05,4:30,158.7,,241.5,1371.014,,
01/05/05,5:00,158.7,,241.5,1371.014,,
01/05/05,5:30,158.7,,241.5,1371.014,,
01/05/05,6:00,158.7,,241.5,1371.014,,
01/05/05,6:30,158.6,,241.6,1371.013,,
01/05/05,7:00,158.7,,241.5,1371.014,,
01/05/05,7:30,158.6,,241.6,1371.013,,
01/05/05,8:00,158.8,,241.4,1371.015,,
01/05/05,8:30,158.7,,241.5,1371.014,,
01/05/05,9:00,158.7,,241.5,1371.014,,
01/05/05,9:30,158.6,,241.6,1371.013,,
01/05/05,10:00,158.8,,241.4,1371.015,,
01/05/05,10:30,158.9,,241.3,1371.016,,
01/05/05,11:00,159.0,,241.3,1371.017,,
01/05/05,11:30,159.1,,241.2,1371.018,,
01/05/05,12:00,159.1,,241.2,1371.018,,
01/05/05,12:30,159.2,,241.1,1371.019,,
01/05/05,13:00,159.3,,241.0,1371.020,,
01/05/05,13:30,159.3,,240.9,1371.020,,
01/05/05,14:00,159.4,,240.8,1371.021,,
01/05/05,14:30,159.3,,240.9,1371.020,,
01/05/05,15:00,159.4,,240.8,1371.021,,
01/05/05,15:30,159.4,,240.8,1371.021,,
01/05/05,16:00,159.5,,240.7,1371.022,,
01/05/05,16:30,159.4,,240.8,1371.021,,
01/05/05,17:00,159.5,,240.7,1371.022,,
01/05/05,17:30,159.7,,240.5,1371.024,,
01/05/05,18:00,159.4,,240.8,1371.021,,
01/05/05,18:30,159.3,,240.9,1371.020,,
01/05/05,19:00,159.3,,240.9,1371.020,,
01/05/05,19:30,159.3,,240.9,1371.020,,
01/05/05,20:00,159.2,,241.0,1371.019,,
01/05/05,20:30,159.2,,241.0,1371.019,,
01/05/05,21:00,159.3,,240.9,1371.020,,
01/05/05,21:30,159.4,,240.8,1371.021,,
01/05/05,22:00,159.2,,241.0,1371.019,,
01/05/05,22:30,159.3,,240.9,1371.020,,
01/05/05,23:00,159.3,,240.9,1371.020,,
01/05/05,23:30,159.4,,240.8,1371.021,,
01/06/05,0:00,159.5,,240.7,1371.022,,
01/06/05,0:30,159.5,,240.7,1371.022,,
01/06/05,1:00,159.4,,240.8,1371.021,,
01/06/05,1:30,159.4,,240.8,1371.021,,
01/06/05,2:00,159.6,,240.6,1371.023,,
01/06/05,2:30,159.4,,240.8,1371.021,,
01/06/05,3:00,159.5,,240.7,1371.022,,
01/06/05,3:30,159.6,,240.6,1371.023,,
01/06/05,4:00,159.6,,240.6,1371.023,,
01/06/05,4:30,159.5,,240.7,1371.022,,
01/06/05,5:00,159.6,,240.6,1371.023,,
01/06/05,5:30,159.7,,240.5,1371.024,,
01/06/05,6:00,159.6,,240.6,1371.023,,
01/06/05,6:30,159.7,,240.5,1371.024,,
01/06/05,7:00,159.8,,240.4,1371.025,,
01/06/05,7:30,159.7,,240.5,1371.024,,
01/06/05,8:00,159.7,,240.5,1371.024,,
01/06/05,8:30,159.7,,240.5,1371.024,,
01/06/05,9:00,159.9,,240.4,1371.026,,
01/06/05,9:30,160.0,,240.3,1371.027,,
01/06/05,10:00,160.1,,240.2,1371.028,,
01/06/05,10:30,160.1,,240.2,1371.028,,
01/06/05,11:00,160.3,,239.9,1371.030,,
01/06/05,11:30,160.4,,239.8,1371.031,,
01/06/05,12:00,160.6,,239.6,1371.033,,
01/06/05,12:30,160.6,,239.6,1371.033,,
01/06/05,13:00,160.6,,239.6,1371.033,,
01/06/05,13:30,160.8,,239.4,1371.035,,
01/06/05,14:00,160.6,,239.6,1371.033,,
01/06/05,14:30,160.8,,239.4,1371.035,,
01/06/05,15:00,160.9,,239.3,1371.036,,
01/06/05,15:30,160.9,,239.3,1371.036,,
01/06/05,16:00,161.2,,239.0,1371.039,,
01/06/05,16:30,160.9,,239.3,1371.036,,
01/06/05,17:00,161.0,,239.2,1371.037,,
01/06/05,17:30,161.2,,239.0,1371.039,,
01/06/05,18:00,161.2,,239.0,1371.039,,
01/06/05,18:30,161.1,,239.1,1371.038,,
01/06/05,19:00,161.0,,239.2,1371.037,,
01/06/05,19:30,161.2,,239.0,1371.039,,
01/06/05,20:00,161.0,,239.2,1371.037,,
01/06/05,20:30,160.9,,239.3,1371.036,,
01/06/05,21:00,161.1,,239.1,1371.038,,
01/06/05,21:30,160.9,,239.3,1371.036,,
01/06/05,22:00,161.0,,239.2,1371.037,,
01/06/05,22:30,161.1,,239.1,1371.038,,
01/06/05,23:00,161.1,,239.1,1371.038,,
01/06/05,23:30,161.0,,239.2,1371.037,,
01/07/05,0:00,161.1,,239.1,1371.038,,
01/07/05,0:30,160.8,,239.4,1371.035,,
01/07/05,1:00,161.1,,239.1,1371.038,,
01/07/05,1:30,161.1,,239.1,1371.038,,
01/07/05,2:00,160.9,,239.3,1371.036,,
01/07/05,2:30,161.1,,239.1,1371.038,,
01/07/05,3:00,160.9,,239.3,1371.036,,
01/07/05,3:30,160.9,,239.3,1371.036,,
01/07/05,4:00,161.0,,239.2,1371.037,,
01/07/05,4:30,160.9,,239.3,1371.036,,
01/07/05,5:00,161.1,,239.1,1371.038,,
01/07/05,5:30,160.9,,239.3,1371.036,,
01/07/05,6:00,160.9,,239.3,1371.036,,
01/07/05,6:30,161.0,,239.3,1371.037,,
01/07/05,7:00,161.0,,239.3,1371.037,,
01/07/05,7:30,161.0,,239.3,1371.037,,
01/07/05,8:00,160.8,,239.5,1371.035,,
01/07/05,8:30,160.9,,239.3,1371.036,,
01/07/05,9:00,161.1,,239.1,1371.038,,
01/07/05,9:30,160.8,,239.4,1371.035,,
01/07/05,10:00,161.0,,239.2,1371.037,,
01/07/05,10:30,161.0,,239.2,1371.037,,
01/07/05,11:00,161.0,,239.2,1371.037,,
01/07/05,11:30,161.2,,239.0,1371.039,,
01/07/05,12:00,161.3,,238.9,1371.040,,
01/07/05,12:30,161.4,,238.8,1371.041,,
01/07/05,13:00,161.4,,238.8,1371.041,,
01/07/05,13:30,161.5,,238.7,1371.042,,
01/07/05,14:00,161.6,,238.6,1371.043,,
01/07/05,14:30,161.7,,238.5,1371.044,,
01/07/05,15:00,161.5,,238.7,1371.042,,
01/07/05,15:30,161.4,,238.8,1371.041,,
01/07/05,16:00,161.5,,238.7,1371.042,,
01/07/05,16:30,161.4,,238.8,1371.041,,
01/07/05,17:00,161.5,,238.7,1371.042,,
01/07/05,17:30,161.5,,238.7,1371.042,,
01/07/05,18:00,161.4,,238.8,1371.041,,
01/07/05,18:30,161.4,,238.8,1371.041,,
01/07/05,19:00,161.4,,238.8,1371.041,,
01/07/05,19:30,161.5,,238.7,1371.042,,
01/07/05,20:00,161.4,,238.8,1371.041,,
01/07/05,20:30,161.5,,238.7,1371.042,,
01/07/05,21:00,161.3,,238.9,1371.040,,
01/07/05,21:30,161.3,,238.9,1371.040,,
01/07/05,22:00,161.4,,238.8,1371.041,,
01/07/05,22:30,161.5,,238.7,1371.042,,
01/07/05,23:00,161.2,,239.0,1371.039,,
01/07/05,23:30,161.3,,238.9,1371.040,,
01/08/05,0:00,161.1,,239.1,1371.038,,
01/08/05,0:30,161.1,,239.1,1371.038,,
01/08/05,1:00,161.4,,238.8,1371.041,,
01/08/05,1:30,161.5,,238.7,1371.042,,
01/08/05,2:00,161.4,,238.8,1371.041,,
01/08/05,2:30,161.2,,239.0,1371.039,,
01/08/05,3:00,161.3,,238.9,1371.040,,
01/08/05,3:30,161.3,,238.9,1371.040,,
01/08/05,4:00,161.4,,238.9,1371.041,,
01/08/05,4:30,161.6,,238.7,1371.043,,
01/08/05,5:00,161.5,,238.8,1371.042,,
01/08/05,5:30,161.5,,238.8,1371.042,,
01/08/05,6:00,161.4,,238.8,1371.041,,
01/08/05,6:30,161.4,,238.8,1371.041,,
01/08/05,7:00,161.4,,238.8,1371.041,,
01/08/05,7:30,161.5,,238.7,1371.042,,
01/08/05,8:00,161.4,,238.8,1371.041,,
01/08/05,8:30,161.3,,238.9,1371.040,,
01/08/05,9:00,161.3,,238.9,1371.040,,
01/08/05,9:30,161.5,,238.7,1371.042,,
01/08/05,10:00,161.3,,238.9,1371.040,,
01/08/05,10:30,161.4,,238.8,1371.041,,
01/08/05,11:00,161.3,,238.9,1371.040,,
01/08/05,11:30,161.6,,238.6,1371.043,,
01/08/05,12:00,161.6,,238.6,1371.043,,
01/08/05,12:30,161.8,,238.4,1371.045,,
01/08/05,13:00,161.6,,238.6,1371.043,,
01/08/05,13:30,161.7,,238.5,1371.044,,
01/08/05,14:00,161.9,,238.3,1371.046,,
01/08/05,14:30,161.9,,238.3,1371.046,,
01/08/05,15:00,162.0,,238.2,1371.047,,
01/08/05,15:30,161.9,,238.3,1371.046,,
01/08/05,16:00,162.0,,238.2,1371.047,,
01/08/05,16:30,162.0,,238.2,1371.047,,
01/08/05,17:00,162.0,,238.2,1371.047,,
01/08/05,17:30,162.0,,238.2,1371.047,,
01/08/05,18:00,161.9,,238.3,1371.046,,
01/08/05,18:30,161.8,,238.4,1371.045,,
01/08/05,19:00,161.8,,238.4,1371.045,,
01/08/05,19:30,161.8,,238.4,1371.045,,
01/08/05,20:00,161.7,,238.5,1371.044,,
01/08/05,20:30,161.7,,238.5,1371.044,,
01/08/05,21:00,161.7,,238.5,1371.044,,
01/08/05,21:30,162.0,,238.2,1371.047,,
01/08/05,22:00,161.6,,238.6,1371.043,,
01/08/05,22:30,161.8,,238.4,1371.045,,
01/08/05,23:00,161.7,,238.5,1371.044,,
01/08/05,23:30,161.7,,238.5,1371.044,,
01/09/05,0:00,161.7,,238.5,1371.044,,
01/09/05,0:30,161.7,,238.5,1371.044,,
01/09/05,1:00,161.5,,238.7,1371.042,,
01/09/05,1:30,161.9,,238.4,1371.046,,
01/09/05,2:00,161.6,,238.7,1371.043,,
01/09/05,2:30,161.8,,238.5,1371.045,,
01/09/05,3:00,161.8,,238.5,1371.045,,
01/09/05,3:30,161.9,,238.4,1371.046,,
01/09/05,4:00,161.9,,238.3,1371.046,,
01/09/05,4:30,162.0,,238.2,1371.047,,
01/09/05,5:00,161.9,,238.3,1371.046,,
01/09/05,5:30,161.8,,238.4,1371.045,,
01/09/05,6:00,161.8,,238.4,1371.045,,
01/09/05,6:30,162.0,,238.2,1371.047,,
01/09/05,7:00,162.0,,238.2,1371.047,,
01/09/05,7:30,162.0,,238.2,1371.047,,
01/09/05,8:00,161.8,,238.4,1371.045,,
01/09/05,8:30,161.7,,238.5,1371.044,,
01/09/05,9:00,161.7,,238.5,1371.044,,
01/09/05,9:30,161.6,,238.6,1371.043,,
01/09/05,10:00,161.7,,238.5,1371.044,,
01/09/05,10:30,161.9,,238.3,1371.046,,
01/09/05,11:00,161.9,,238.3,1371.046,,
01/09/05,11:30,162.0,,238.2,1371.047,,
01/09/05,12:00,162.1,,238.1,1371.048,,
01/09/05,12:30,162.2,,238.0,1371.049,,
01/09/05,13:00,162.2,,238.0,1371.049,,
01/09/05,13:30,162.1,,238.1,1371.048,,
01/09/05,14:00,162.2,,238.0,1371.049,,
01/09/05,14:30,162.3,,237.9,1371.050,,
01/09/05,15:00,162.4,,237.8,1371.051,,
01/09/05,15:30,162.3,,237.9,1371.050,,
01/09/05,16:00,162.4,,237.8,1371.051,,
01/09/05,16:30,162.5,,237.7,1371.052,,
01/09/05,17:00,162.5,,237.7,1371.052,,
01/09/05,17:30,162.5,,237.7,1371.052,,
01/09/05,18:00,162.3,,237.9,1371.050,,
01/09/05,18:30,162.3,,237.9,1371.050,,
01/09/05,19:00,162.6,,237.6,1371.053,,
01/09/05,19:30,162.5,,237.7,1371.052,,
01/09/05,20:00,162.5,,237.7,1371.052,,
01/09/05,20:30,162.5,,237.7,1371.052,,
01/09/05,21:00,162.5,,237.7,1371.052,,
01/09/05,21:30,162.4,,237.8,1371.051,,
01/09/05,22:00,162.3,,237.9,1371.050,,
01/09/05,22:30,162.5,,237.7,1371.052,,
01/09/05,23:00,162.4,,237.8,1371.051,,
01/09/05,23:30,162.4,,237.9,1371.051,,
01/10/05,0:00,162.6,,237.7,1371.053,,
01/10/05,0:30,162.7,,237.6,1371.054,,
01/10/05,1:00,162.5,,237.8,1371.052,,
01/10/05,1:30,162.5,,237.7,1371.052,,
01/10/05,2:00,162.5,,237.7,1371.052,,
01/10/05,2:30,162.7,,237.5,1371.054,,
01/10/05,3:00,162.6,,237.6,1371.053,,
01/10/05,3:30,162.6,,237.6,1371.053,,
01/10/05,4:00,162.6,,237.6,1371.053,,
01/10/05,4:30,162.7,,237.5,1371.054,,
01/10/05,5:00,162.8,,237.4,1371.055,,
01/10/05,5:30,162.8,,237.4,1371.055,,
01/10/05,6:00,162.6,,237.6,1371.053,,
01/10/05,6:30,162.5,,237.7,1371.052,,
01/10/05,7:00,162.8,,237.4,1371.055,,
01/10/05,7:30,162.6,,237.6,1371.053,,
01/10/05,8:00,162.6,,237.6,1371.053,,
01/10/05,8:30,162.7,,237.5,1371.054,,
01/10/05,9:00,162.6,,237.6,1371.053,,
01/10/05,9:30,162.6,,237.6,1371.053,,
01/10/05,10:00,163.0,,237.2,1371.057,,
01/10/05,10:30,162.9,,237.3,1371.056,,
01/10/05,11:00,162.9,,237.3,1371.056,,
01/10/05,11:30,163.1,,237.1,1371.058,,
01/10/05,12:00,163.0,,237.2,1371.057,,
01/10/05,12:30,163.1,,237.1,1371.058,,
01/10/05,13:00,163.4,,236.8,1371.061,,
01/10/05,13:30,163.4,,236.8,1371.061,,
01/10/05,14:00,163.4,,236.8,1371.061,,
01/10/05,14:30,163.6,,236.6,1371.063,,
01/10/05,15:00,163.3,,236.9,1371.060,,
01/10/05,15:30,163.3,,236.9,1371.060,,
01/10/05,16:00,163.3,,236.9,1371.060,,
01/10/05,16:30,163.4,,236.8,1371.061,,
01/10/05,17:00,163.6,,236.6,1371.063,,
01/10/05,17:30,163.5,,236.7,1371.062,,
01/10/05,18:00,163.5,,236.7,1371.062,,
01/10/05,18:30,163.7,,236.5,1371.064,,
01/10/05,19:00,163.5,,236.7,1371.062,,
01/10/05,19:30,163.6,,236.6,1371.063,,
01/10/05,20:00,163.6,,236.6,1371.063,,
01/10/05,20:30,163.8,,236.4,1371.065,,
01/10/05,21:00,163.7,,236.6,1371.064,,
01/10/05,21:30,163.7,,236.6,1371.064,,
01/10/05,22:00,163.9,,236.4,1371.066,,
01/10/05,22:30,163.9,,236.4,1371.066,,
01/10/05,23:00,163.9,,236.3,1371.066,,
01/10/05,23:30,163.9,,236.3,1371.066,,
01/11/05,0:00,164.1,,236.1,1371.068,,
01/11/05,0:30,164.2,,236.0,1371.069,,
01/11/05,1:00,164.4,,235.8,1371.071,,
01/11/05,1:30,164.2,,236.0,1371.069,,
01/11/05,2:00,164.3,,235.9,1371.070,,
01/11/05,2:30,164.5,,235.7,1371.072,,
01/11/05,3:00,164.7,,235.5,1371.074,,
01/11/05,3:30,164.8,,235.4,1371.075,,
01/11/05,4:00,164.9,,235.3,1371.076,,
01/11/05,4:30,165.0,,235.2,1371.077,,
01/11/05,5:00,165.1,,235.1,1371.078,,
01/11/05,5:30,165.2,,235.0,1371.079,,
01/11/05,6:00,165.3,,234.9,1371.080,,
01/11/05,6:30,165.5,,234.7,1371.082,,
01/11/05,7:00,165.7,,234.5,1371.084,,
01/11/05,7:30,165.8,,234.4,1371.085,,
01/11/05,8:00,165.9,,234.3,1371.086,,
01/11/05,8:30,166.1,,234.1,1371.088,,
01/11/05,9:00,166.2,,234.0,1371.089,,
01/11/05,9:30,166.4,,233.8,1371.091,,
01/11/05,10:00,166.5,,233.7,1371.092,,
01/11/05,10:30,166.7,,233.5,1371.094,,
01/11/05,11:00,166.9,,233.3,1371.096,,
01/11/05,11:30,167.1,,233.1,1371.098,,
01/11/05,12:00,167.5,,232.7,1371.102,,
01/11/05,12:30,167.5,,232.7,1371.102,,
01/11/05,13:00,167.8,,232.4,1371.105,,
01/11/05,13:30,168.2,,232.0,1371.109,,
01/11/05,14:00,168.2,,232.0,1371.109,,
01/11/05,14:30,168.4,,231.8,1371.111,,
01/11/05,15:00,168.6,,231.6,1371.113,,
01/11/05,15:30,168.9,,231.3,1371.116,,
01/11/05,16:00,169.0,,231.2,1371.117,,
01/11/05,16:30,169.3,,230.9,1371.120,,
01/11/05,17:00,169.5,,230.7,1371.122,,
01/11/05,17:30,169.6,,230.6,1371.123,,
01/11/05,18:00,169.8,,230.4,1371.125,,
01/11/05,18:30,170.1,,230.2,1371.128,,
01/11/05,19:00,170.4,,229.9,1371.131,,
01/11/05,19:30,170.5,,229.8,1371.132,,
01/11/05,20:00,170.6,,229.7,1371.133,,
01/11/05,20:30,170.9,,229.4,1371.136,,
01/11/05,21:00,171.0,,229.2,1371.137,,
01/11/05,21:30,171.2,,229.0,1371.139,,
01/11/05,22:00,171.6,,228.6,1371.143,,
01/11/05,22:30,171.6,,228.6,1371.143,,
01/11/05,23:00,171.8,,228.4,1371.145,,
01/11/05,23:30,171.9,,228.3,1371.146,,
01/12/05,0:00,172.0,,228.2,1371.147,,
01/12/05,0:30,172.2,,228.0,1371.149,,
01/12/05,1:00,172.5,,227.7,1371.152,,
01/12/05,1:30,172.6,,227.6,1371.153,,
01/12/05,2:00,172.6,,227.6,1371.153,,
01/12/05,2:30,172.8,,227.4,1371.155,,
01/12/05,3:00,172.9,,227.3,1371.156,,
01/12/05,3:30,173.2,,227.0,1371.159,,
01/12/05,4:00,173.0,,227.2,1371.157,,
01/12/05,4:30,173.4,,226.8,1371.161,,
01/12/05,5:00,173.7,,226.5,1371.164,,
01/12/05,5:30,173.9,,226.3,1371.166,,
01/12/05,6:00,173.9,,226.3,1371.166,,
01/12/05,6:30,174.0,,226.2,1371.167,,
01/12/05,7:00,174.2,,226.0,1371.169,,
01/12/05,7:30,174.4,,225.8,1371.171,,
01/12/05,8:00,174.2,,226.0,1371.169,,
01/12/05,8:30,174.6,,225.6,1371.173,,
01/12/05,9:00,174.9,,225.3,1371.176,,
01/12/05,9:30,174.8,,225.4,1371.175,,
01/12/05,10:00,175.4,,224.8,1371.181,,
01/12/05,10:30,175.2,,225.0,1371.179,,
01/12/05,11:00,175.4,,224.8,1371.181,,
01/12/05,11:30,175.6,,224.6,1371.183,,
01/12/05,12:00,175.8,,224.4,1371.185,,
01/12/05,12:30,175.9,,224.3,1371.186,,
01/12/05,13:00,176.0,,224.2,1371.187,,
01/12/05,13:30,176.3,,223.9,1371.190,,
01/12/05,14:00,176.4,,223.8,1371.191,,
01/12/05,14:30,176.5,,223.7,1371.192,,
01/12/05,15:00,176.8,,223.4,1371.195,,
01/12/05,15:30,176.9,,223.3,1371.196,,
01/12/05,16:00,177.2,,223.1,1371.199,,
01/12/05,16:30,177.1,,223.2,1371.198,,
01/12/05,17:00,177.5,,222.8,1371.202,,
01/12/05,17:30,177.4,,222.9,1371.201,,
01/12/05,18:00,177.5,,222.8,1371.202,,
01/12/05,18:30,177.6,,222.6,1371.203,,
01/12/05,19:00,177.9,,222.3,1371.206,,
01/12/05,19:30,178.1,,222.1,1371.208,,
01/12/05,20:00,178.0,,222.2,1371.207,,
01/12/05,20:30,178.2,,222.0,1371.209,,
01/12/05,21:00,178.3,,221.9,1371.210,,
01/12/05,21:30,178.9,,221.3,1371.216,,
01/12/05,22:00,178.8,,221.4,1371.215,,
01/12/05,22:30,178.9,,221.3,1371.216,,
01/12/05,23:00,179.0,,221.2,1371.217,,
01/12/05,23:30,179.1,,221.1,1371.218,,
01/13/05,0:00,179.2,,221.0,1371.219,,
01/13/05,0:30,179.3,,220.9,1371.220,,
01/13/05,1:00,179.4,,220.8,1371.221,,
01/13/05,1:30,179.7,,220.5,1371.224,,
01/13/05,2:00,180.3,,219.9,1371.230,,
01/13/05,2:30,180.2,,220.0,1371.229,,
01/13/05,3:00,180.1,,220.1,1371.228,,
01/13/05,3:30,180.4,,219.8,1371.231,,
01/13/05,4:00,180.2,,220.0,1371.229,,
01/13/05,4:30,180.5,,219.7,1371.232,,
01/13/05,5:00,180.5,,219.7,1371.232,,
01/13/05,5:30,180.7,,219.5,1371.234,,
01/13/05,6:00,180.8,,219.4,1371.235,,
01/13/05,6:30,181.7,,218.5,1371.244,,
01/13/05,7:00,181.9,,218.3,1371.246,,
01/13/05,7:30,181.7,,218.5,1371.244,,
01/13/05,8:00,181.7,,218.5,1371.244,,